Location: Pittsburgh
(40.4410°N, 79.9960°W)
Time: 00:40:46
(UTC-04:00)

BlueWalker 3 - Pass Details

Date: 18 March 2026
Orbit: 449 x 457 km, 53.2° (Epoch: 17 April)

Event Time Altitude Azimuth Distance (km) Brightness Sun altitude
Exits shadow 05:48:06 68° 262° (W) 495 1.6 -19.4°
Maximum altitude 05:48:23 73° 222° (SW) 481 1.6 -19.3°
Drops below altitude 10° 05:51:56 10° 137° (SE) 1,586 4.8 -18.6°
Sets 05:54:04 0° 136° (SE) 2,454 5.8 -18.3°
